Location: Grantsboro
(35.1404°N, 76.8424°W)
Time: 19:07:08
(UTC+00:00)

Cosmos 1980 Rocket - Pass Details

Date: 18 January 2020
Orbit: 831 x 848 km, 71.0° (Epoch: 27 February)

Event Time Altitude Azimuth Distance (km) Brightness Sun altitude
Rises 10:19:15 0° 191° (S) 3,394 5.3 -23.3°
Reaches altitude 10° 10:21:43 10° 188° (S) 2,462 4.6 -22.8°
Maximum altitude 10:27:18 65° 108° (ESE) 928 2.6 -21.7°
Drops below altitude 10° 10:32:55 10° 28° (NNE) 2,471 4.8 -20.5°
Sets 10:35:23 0° 25° (NNE) 3,408 5.5 -20.0°
